TimeAKDT,TemperatureF,Dew PointF,Humidity,Sea Level PressureIn,VisibilityMPH,Wind Direction,Wind SpeedMPH,Gust SpeedMPH,PrecipitationIn,Events,Conditions,WindDirDegrees,DateUTC
12:53 AM,-20.0,-26.0,74,30.38,10.0,Calm,Calm,-,N/A,,Clear,0,2013-03-15 08:53:00
1:53 AM,-23.1,-27.9,78,30.38,10.0,Calm,Calm,-,N/A,,Clear,0,2013-03-15 09:53:00
2:53 AM,-24.0,-29.9,74,30.37,10.0,Calm,Calm,-,N/A,,Clear,0,2013-03-15 10:53:00
3:53 AM,-26.0,-31.0,77,30.36,10.0,Calm,Calm,-,N/A,,Clear,0,2013-03-15 11:53:00
4:53 AM,-27.0,-34.1,69,30.35,10.0,Calm,Calm,-,N/A,,Clear,0,2013-03-15 12:53:00
5:53 AM,-27.9,-35.0,69,30.35,10.0,Calm,Calm,-,N/A,,Clear,0,2013-03-15 13:53:00
6:53 AM,-29.9,-9999,N/A,30.35,10.0,Calm,Calm,-,N/A,,Partly Cloudy,0,2013-03-15 14:53:00
7:53 AM,-31.0,-9999,N/A,30.35,10.0,Calm,Calm,-,N/A,,Partly Cloudy,0,2013-03-15 15:53:00
8:53 AM,-27.0,-32.1,77,30.34,10.0,Calm,Calm,-,N/A,,Partly Cloudy,0,2013-03-15 16:53:00
9:53 AM,-16.1,-20.0,82,30.33,10.0,Calm,Calm,-,N/A,,Partly Cloudy,0,2013-03-15 17:53:00
10:53 AM,-11.0,-17.0,75,30.32,10.0,Calm,Calm,-,N/A,,Scattered Clouds,0,2013-03-15 18:53:00
11:53 AM,-4.0,-16.1,56,30.29,10.0,Calm,Calm,-,N/A,,Scattered Clouds,0,2013-03-15 19:53:00
12:53 PM,1.0,-15.0,47,30.27,10.0,Calm,Calm,-,N/A,,Scattered Clouds,0,2013-03-15 20:53:00
1:53 PM,6.1,-14.1,39,30.23,10.0,Calm,Calm,-,N/A,,Scattered Clouds,0,2013-03-15 21:53:00
2:53 PM,8.1,-13.0,38,30.20,10.0,East,3.5,-,N/A,,Scattered Clouds,80,2013-03-15 22:53:00
3:53 PM,9.0,-11.9,38,30.19,10.0,ESE,9.2,-,N/A,,Scattered Clouds,110,2013-03-15 23:53:00
4:53 PM,9.0,-11.9,38,30.19,10.0,East,9.2,-,N/A,,Mostly Cloudy,90,2013-03-16 00:53:00
5:53 PM,8.1,-9.9,44,30.19,10.0,East,8.1,-,N/A,,Mostly Cloudy,100,2013-03-16 01:53:00
6:53 PM,8.1,-9.0,46,30.19,10.0,ESE,9.2,-,N/A,,Mostly Cloudy,110,2013-03-16 02:53:00
7:53 PM,6.1,-8.0,53,30.22,10.0,East,4.6,-,N/A,,Overcast,100,2013-03-16 03:53:00
8:53 PM,3.0,-9.0,57,30.21,10.0,Calm,Calm,-,N/A,,Scattered Clouds,0,2013-03-16 04:53:00
9:53 PM,-5.1,-13.0,69,30.21,10.0,Calm,Calm,-,N/A,,Scattered Clouds,0,2013-03-16 05:53:00
10:53 PM,-9.0,-15.0,75,30.21,10.0,Calm,Calm,-,N/A,,Scattered Clouds,0,2013-03-16 06:53:00
11:53 PM,-14.1,-18.0,82,30.22,10.0,Calm,Calm,-,N/A,,Partly Cloudy,0,2013-03-16 07:53:00